Location: Arbon
(43.0005°N, 0.7472°E)
Time: 08:09:31
(UTC+00:00)

Cosmos 2173 Rocket - Pass Details

Date: 22 April 2026
Orbit: 944 x 999 km, 83.0° (Epoch: 15 May)

Event Time Altitude Azimuth Distance (km) Brightness Sun altitude
Exits shadow 22:03:21 57° 64° (ENE) 1,103 4.1 -28.9°
Drops below altitude 10° 22:08:41 10° 15° (NNE) 2,679 6.8 -29.4°
Sets 22:11:13 0° 12° (NNE) 3,633 7.7 -29.6°
